Regional Weather Roundup
Issued by NWS Newport/Morehead, NC

Home | Current Version | Previous Version | Text Only | Print | Product List | Glossary On
Versions: 1 2 3 4 5 6 7 8 9 10 11 12 13 14 15 16 17 18 19 20 21 22 23 24 25 26 27 28 29 30 31 32 33 34 35 36 37 38 39 40 41 42 43 44 45 46 47 48 49 50
000
ASUS42 KMHX 180526
RWRMHX
WEATHER ROUNDUP FOR EASTERN NORTH CAROLINA
NATIONAL WEATHER SERVICE NEWPORT/MOREHEAD CITY NC
1200 AM EST THU JAN 18 2018

NOTE: "FAIR" INDICATES FEW OR NO CLOUDS BELOW 12,000 FEET
WITH NO SIGNIFICANT WEATHER AND/OR OBSTRUCTIONS TO VISIBILITY

NCZ015>017-031-032-045>047-102-103-180600-
NORTH COAST

CITY           SKY/WX    TMP DP  RH WIND       PRES   REMARKS
EDENTON        MIX PCPN  25  22  89 N14G24    30.14R WCI  13
ELIZABETH CITY CLOUDY    25  24  96 N22G30    30.12F FOG     WCI  10
KITTY HAWK     LGT SNOW N/A N/A N/A N15       30.03F VSB 1
MANTEO         LGT SNOW  29  28  94 N16G22    30.07F VSB 1   WCI  17

$$

NCZ045>047-081-094-103-104-180600-
CENTRAL COAST

CITY           SKY/WX    TMP DP  RH WIND       PRES   REMARKS
FRISCO         HVY RAIN  34  33  96 N15G35    30.00F FOG

$$

NCZ095-097-098-100-101-180600-
SOUTHERN COAST

CITY           SKY/WX    TMP DP  RH WIND       PRES   REMARKS
BEAUFORT       LGT SNOW  27  25  92 N24G32    30.10R FOG     WCI  12
CEDAR ISLAND   NOT AVBL
JACKSONVILLE   LGT SNOW  26  25  96 N16       30.15F FOG     WCI  14
PINEY ISLAND   NOT AVBL
WILMINGTON     CLOUDY    28  24  85 NW22G30   30.18R WCI  14


$$

NCZ011>013-027>030-043-044-078>080-089-090>093-098-180600-
COASTAL PLAIN

CITY           SKY/WX    TMP DP  RH WIND       PRES   REMARKS
AHOSKIE        LGT SNOW  21  18  88 N8G17     30.19S
CLINTON        MOCLDY    27  23  85 CALM      30.23S
ELIZABETHTOWN  NOT AVBL
GOLDSBORO      FLURRIES  24  19  80 N15G21    30.19S WCI  12
GREENVILLE     LGT SNOW  23  21  93 N13       30.20F WCI  11
HAVELOCK       NOT AVBL
KENANSVILLE    LGT SNOW  25  21  86 N10G20    30.20S FOG     WCI  15
KINSTON        LGT SNOW  25  21  84 NW14G20   30.19F WCI  13
NEW BERN       LGT SNOW  25  22  88 NW13      30.15S VSB 3/4 WCI  14
RICHLANDS      LGT SNOW  26  23  88 N8G18     30.18S FOG
ROCKY MOUNT    LGT SNOW  22  19  89 N14G22    30.22S FOG     WCI   9
WASHINGTON     LGT SNOW  24  21  89 NW12      30.15F WCI  13
WHITEVILLE     CLOUDY    29  24  80 N7        30.22S

$$

AMZ130-135-150-152-154-156-158-170-250-252-270-ANZ085-086-088-633-658-670-180600-
MARINE OBSERVATIONS

STATION/POSITION TIME  TEMP    WIND        PRES    WAVE   SWELL
                       AIR SEA DIR/SP/G            HT/PER HT/PER
                 (UTC) (F)     (DEG/KT/KT) (MB)    (FT/S) (FT/S)
CHESAPEAKE LIGHT NOT AVBL
64 E VA BEACH    0450   36 57  360/ 27/ 33 1017.3    9/ 6   3/11
DUCK             0500   29 38   10/ 30/ 36 1017.2
2 E DUCK         0500      40                N/A     9/ 6   2/11
OREGON INLET     0500   31 40  350/ 20/ 30 1016.5
13E OREGON INLT  0448      44                N/A    10/ 7   5/10
HATTERAS CG      0500   33 43  350/ 31/ 39 1015.6
DIAMOND BUOY     0510   43 72  350/ 33/ 43 1014.3
CAPE LOOKOUT     0500          330/ 17/ 19 1019.1
BEAUFORT LAB     0500   27 46  350/ 16/ 23 1019.0
30 SE NEW RVR IN 0408   38 58  340/ 21/ 27 1018.1
30 SE NEW RVR IN 0500      58                N/A     7/ 5   2/11
27 SE WRIGHTSVLE 0408   38 58  350/ 25/ 35 1019.6
5 SE WRIGHTSVLE  0508   32 47  340/ 21     1020.5
225 S CAPE HAT   0450   66 70  270/ 25/ 31 1014.1    7/11   5/11
41 SE CHARLESTON 0510   41 69  310/ 23/ 33 1022.9

$$



USA.gov is the U.S. government's official web portal to all federal, state and local government web resources and services.